Pinedale, WY

10:48 PM MDT on May 27, 2017 (GMT -0600)
Wenz

Weather History for KPNA - August, 2013

Change the Weather History Date:

Saturday, August 24, 2013

  Actual Average (KBPI) Record (KBPI)
Temperature  
Mean Temperature 58 °F -  
Max Temperature 71 °F 75 °F 89 °F (2015)
Min Temperature 46 °F 38 °F 24 °F (1992)
Degree Days  
Heating Degree Days 6    
Growing Degree Days 8 (Base 50)    
Moisture  
Dew Point 46 °F    
Average Humidity 67    
Maximum Humidity 100    
Minimum Humidity 31    
Precipitation  
Precipitation 0.00 in - - ()
Sea Level Pressure  
Sea Level Pressure 30.23 in    
Wind  
Wind Speed 4 mph (West)    
Max Wind Speed 18 mph    
Max Gust Speed 29 mph    
Visibility 10 miles    
Events Rain , Thunderstorm    
Averages and records for this station are not official NWS values.
T = Trace of Precipitation, MM = Missing Value Source: NWS Daily Summary

Daily Weather History Graph

Daily Weather History Graph

Search for Another Location

Airport or City:

Trip Planner

Search our weather history database for the weather conditions in past years. The results will help you decide how hot, cold, wet, or windy it might be!

Date:

Astronomy

Aug. 24, 2013 Rise Set
Actual Time 6:35 AM MDT 8:06 PM MDT
Civil Twilight 6:05 AM MDT 8:36 PM MDT
Nautical Twilight 5:29 AM MDT 9:11 PM MDT
Astronomical Twilight 4:51 AM MDT 9:49 PM MDT
Moon 9:54 PM MDT (8/24) 10:46 AM MDT (8/24)
Length of Visible Light 14h 30m
Length of Day
13h 30m
Waning Gibbous, 84% of the Moon is Illuminated
Aug 24
Waning Gibbous
Aug 28
Last Quarter
Sep 5
New
Sep 12
First Quarter
Sep 19
Full

Hourly Weather History & Observations

Time (MDT) Temp. Dew Point Humidity Pressure Visibility Wind Dir Wind Speed Gust Speed Precip Events Conditions
12:15 AM 53.6 °F 50.0 °F 88% 30.19 in 10.0 mi WSW 6.9 mph - N/A Rain Light Rain
12:35 AM 53.6 °F 51.8 °F 94% 30.19 in 10.0 mi West 6.9 mph - N/A Rain Light Rain
12:55 AM 53.6 °F 50.0 °F 88% 30.19 in 10.0 mi WNW 3.5 mph 10.4 mph N/A Rain Light Rain
1:15 AM 53.6 °F 50.0 °F 88% 30.19 in 10.0 mi West 4.6 mph - N/A Rain Rain
1:35 AM 53.6 °F 51.8 °F 94% 30.19 in 10.0 mi Calm Calm - N/A   Overcast
1:55 AM 53.6 °F 51.8 °F 94% 30.19 in 10.0 mi Calm Calm - N/A Rain Light Rain
2:15 AM 53.6 °F 51.8 °F 94% 30.19 in 10.0 mi Calm Calm - N/A Rain Light Rain
2:35 AM 53.6 °F 51.8 °F 94% 30.19 in 10.0 mi Calm Calm - N/A Rain Light Rain
2:55 AM 51.8 °F 51.8 °F 100% 30.19 in 10.0 mi West 3.5 mph - N/A Rain Rain
3:15 AM 51.8 °F 51.8 °F 100% 30.20 in 10.0 mi West 5.8 mph - N/A Rain Light Rain
3:35 AM 51.8 °F 50.0 °F 94% 30.21 in 7.0 mi WSW 4.6 mph - N/A Rain Rain
3:55 AM 51.8 °F 50.0 °F 94% 30.19 in 10.0 mi Calm Calm - N/A Rain Rain
4:15 AM 51.8 °F 51.8 °F 100% 30.19 in 10.0 mi Calm Calm - N/A   Light Drizzle
4:35 AM 51.8 °F 51.8 °F 100% 30.19 in 10.0 mi Calm Calm - N/A   Overcast
4:55 AM 50.0 °F 50.0 °F 100% 30.19 in 10.0 mi West 5.8 mph - N/A   Scattered Clouds
5:15 AM 50.0 °F 50.0 °F 100% 30.19 in 10.0 mi Calm Calm - N/A   Clear
5:35 AM 50.0 °F 50.0 °F 100% 30.19 in 10.0 mi West 5.8 mph - N/A   Clear
5:55 AM 48.2 °F 48.2 °F 100% 30.21 in 10.0 mi North 3.5 mph - N/A   Scattered Clouds
6:15 AM 48.2 °F 48.2 °F 100% 30.21 in 10.0 mi North 3.5 mph - N/A   Mostly Cloudy
6:35 AM 46.4 °F 46.4 °F 100% 30.22 in 10.0 mi Calm Calm - N/A   Scattered Clouds
6:55 AM 46.4 °F 46.4 °F 100% 30.23 in 10.0 mi Calm Calm - N/A   Clear
7:15 AM 46.4 °F 46.4 °F 100% 30.23 in 10.0 mi Calm Calm - N/A   Clear
7:35 AM 48.2 °F 48.2 °F 100% 30.24 in 10.0 mi Calm Calm - N/A   Clear
7:55 AM 50.0 °F 50.0 °F 100% 30.24 in 10.0 mi Calm Calm - N/A   Clear
8:15 AM 50.0 °F 50.0 °F 100% 30.25 in 10.0 mi West 3.5 mph - N/A   Clear
8:35 AM 51.8 °F 50.0 °F 94% 30.26 in 10.0 mi NW 5.8 mph - N/A   Clear
8:55 AM 53.6 °F 51.8 °F 94% 30.26 in 10.0 mi NW 4.6 mph - N/A   Clear
9:15 AM 55.4 °F 50.0 °F 82% 30.27 in 10.0 mi NW 3.5 mph - N/A   Mostly Cloudy
9:35 AM 57.2 °F 50.0 °F 77% 30.27 in 10.0 mi North 4.6 mph - N/A   Scattered Clouds
9:55 AM 57.2 °F 50.0 °F 77% 30.27 in 10.0 mi Calm Calm - N/A   Clear
10:15 AM 59.0 °F 50.0 °F 72% 30.27 in 10.0 mi NNW 3.5 mph - N/A   Clear
10:35 AM 60.8 °F 50.0 °F 68% 30.27 in 10.0 mi Calm Calm - N/A   Clear
10:55 AM 62.6 °F 48.2 °F 59% 30.27 in 10.0 mi Calm Calm - N/A   Clear
11:15 AM 62.6 °F 48.2 °F 59% 30.27 in 10.0 mi NE 3.5 mph - N/A   Clear
11:35 AM 64.4 °F 46.4 °F 52% 30.26 in 10.0 mi NW 4.6 mph - N/A   Clear
11:55 AM 64.4 °F 46.4 °F 52% 30.26 in 10.0 mi NW 3.5 mph - N/A   Clear
12:15 PM 66.2 °F 46.4 °F 49% 30.26 in 10.0 mi Calm Calm - N/A   Clear
12:35 PM 66.2 °F 46.4 °F 49% 30.25 in 10.0 mi West 4.6 mph - N/A   Clear
12:55 PM 69.8 °F 46.4 °F 43% 30.25 in 10.0 mi NW 3.5 mph - N/A   Scattered Clouds
1:15 PM 69.8 °F 44.6 °F 40% 30.24 in 10.0 mi WSW 8.1 mph - N/A   Scattered Clouds
1:35 PM 69.8 °F 44.6 °F 40% 30.24 in 10.0 mi West 5.8 mph - N/A   Clear
1:55 PM 68.0 °F 42.8 °F 40% 30.23 in 10.0 mi WNW 3.5 mph - N/A   Clear
2:15 PM 69.8 °F 42.8 °F 38% 30.23 in 10.0 mi Calm Calm - N/A   Scattered Clouds
2:35 PM 71.6 °F 42.8 °F 35% 30.23 in 10.0 mi ESE 5.8 mph - N/A   Scattered Clouds
2:55 PM 69.8 °F 42.8 °F 38% 30.22 in 10.0 mi Calm Calm - N/A   Scattered Clouds
3:15 PM 69.8 °F 42.8 °F 38% 30.22 in 10.0 mi Calm Calm - N/A   Clear
3:35 PM 69.8 °F 42.8 °F 38% 30.21 in 10.0 mi SSW 3.5 mph - N/A   Scattered Clouds
3:55 PM 69.8 °F 41.0 °F 35% 30.21 in 10.0 mi South 4.6 mph - N/A   Scattered Clouds
4:15 PM 69.8 °F 41.0 °F 35% 30.22 in 10.0 mi South 4.6 mph - N/A   Scattered Clouds
4:35 PM 71.6 °F 41.0 °F 33% 30.21 in 10.0 mi Calm Calm - N/A   Mostly Cloudy
4:55 PM 71.6 °F 39.2 °F 31% 30.21 in 10.0 mi Calm Calm - N/A   Scattered Clouds
5:15 PM 71.6 °F 41.0 °F 33% 30.19 in 10.0 mi ESE 4.6 mph - N/A   Clear
5:35 PM 71.6 °F 41.0 °F 33% 30.20 in 10.0 mi ESE 4.6 mph - N/A   Clear
5:55 PM 71.6 °F 39.2 °F 31% 30.20 in 10.0 mi SSE 5.8 mph - N/A   Clear
6:15 PM 69.8 °F 37.4 °F 31% 30.20 in 10.0 mi ESE 4.6 mph - N/A   Clear
6:35 PM 69.8 °F 37.4 °F 31% 30.21 in 10.0 mi SSE 4.6 mph - N/A   Scattered Clouds
6:55 PM 64.4 °F 42.8 °F 45% 30.22 in 10.0 mi SW 17.3 mph 28.8 mph N/A Rain Light Rain
7:15 PM 60.8 °F 44.6 °F 55% 30.22 in 10.0 mi WSW 18.4 mph 27.6 mph N/A   Mostly Cloudy
7:35 PM 60.8 °F 44.6 °F 55% 30.22 in 10.0 mi WSW 12.7 mph - N/A   Overcast
7:55 PM 60.8 °F 42.8 °F 52% 30.23 in 10.0 mi West 5.8 mph - N/A   Overcast
8:15 PM 60.8 °F 42.8 °F 52% 30.23 in 10.0 mi Calm Calm - N/A   Mostly Cloudy
8:35 PM 60.8 °F 42.8 °F 52% 30.24 in 10.0 mi North 5.8 mph - N/A   Scattered Clouds
8:55 PM 59.0 °F 44.6 °F 59% 30.24 in 10.0 mi Calm Calm - N/A   Clear
9:15 PM 59.0 °F 44.6 °F 59% 30.26 in 10.0 mi ESE 5.8 mph - N/A Thunderstorm Clear
9:35 PM 59.0 °F 44.6 °F 59% 30.27 in 10.0 mi SSE 4.6 mph - N/A   Clear
9:55 PM 59.0 °F 42.8 °F 55% 30.27 in 10.0 mi South 3.5 mph - N/A   Clear
10:15 PM 59.0 °F 42.8 °F 55% 30.29 in 10.0 mi SW 4.6 mph - N/A   Scattered Clouds
10:35 PM 59.0 °F 42.8 °F 55% 30.29 in 10.0 mi Calm Calm - N/A   Scattered Clouds
10:55 PM 59.0 °F 44.6 °F 59% 30.29 in 10.0 mi Calm Calm - N/A   Clear
11:15 PM 59.0 °F 42.8 °F 55% 30.29 in 10.0 mi North 4.6 mph - N/A   Mostly Cloudy
11:35 PM 59.0 °F 44.6 °F 59% 30.27 in 10.0 mi NE 4.6 mph - N/A Rain Light Rain
11:55 PM 57.2 °F 44.6 °F 63% 30.27 in 10.0 mi Calm Calm - N/A   Overcast